NOAA NWS Hourly Roundups by Site

Regional Weather Roundup for Baltimore MD/Washington, DC

To Select Another Site Choose from List

Select Site:  

000
ASUS41 KLWX 292212
RWRLWX

REGIONAL WEATHER ROUNDUP
NATIONAL WEATHER SERVICE BALTIMORE MD/WASHINGTON DC
600 PM EDT FRI MAY 29 2020

Note: "FAIR" indicates few or no clouds below 12,000 feet
with no significant weather and/or obstructions to visibility.
 TC=TEMPERATURE CELSIUS

 * =Non NWS site. Station does not report precipitation (e.g. rain,
    snow, etc.), thunder, or fog.

DCZ001-MDZ009-015-VAZ040>042-051-053>054-292300-
WASHINGTON METRO

CITY           SKY/WX    TMP DP  RH WIND       PRES   REMARKS
WASHINGTON NAT CLOUDY    83  71  67 SW16      29.90F
DULLES         CLOUDY    81  70  69 S15       29.91S
ANDREWS AFB    CLOUDY    81  71  72 S14       29.90F
FT BELVOIR     FAIR      81  71  70 S5        29.90F
QUANTICO       FAIR      81  72  74 S9        29.92S
COLLEGE PARK*  FAIR      82  67  61 SW8       29.89S
LEESBURG*      FAIR      81  72  74 S13G21    29.91S
MANASSAS*      FAIR      81  73  76 S12       29.92S
GAITHERSBURG*  FAIR      82  70  66 S15       29.92S

$$

MDZ006>007-011-014-292300-
BALTIMORE METRO

CITY           SKY/WX    TMP DP  RH WIND       PRES   REMARKS
BWI AIRPORT    CLOUDY    84  71  65 S10G20    29.88F
BALT INNER HAR   N/A     82  73  74 MISG      29.88F
MARTIN STATE   PTSUNNY   77  73  88 SE15G26   29.91F
ANNAPOLIS      FAIR      75  70  84 S15       29.89F
ABERDEEN*      FAIR      80  73  77 S10G22    29.89S
FORT MEADE*    FAIR      81  72  74 S6        29.91F

$$

MDZ012-015-019>023-292300-
MARYLAND EASTERN SHORE

CITY           SKY/WX    TMP DP  RH WIND       PRES   REMARKS
OCEAN CITY     FAIR      68  66  93 S9        29.98S
SALISBURY      RAIN      76  70  82 S12       29.94F
EASTON*        MOSUNNY   81  73  78 S16G24    29.97F

$$

MDZ017>025-292300-
SOUTHERN MARYLAND

CITY           SKY/WX    TMP DP  RH WIND       PRES   REMARKS
PATUXENT RIVER PTSUNNY   77  66  68 S6        29.93F
ST INIGOES     FAIR      81  68  64 S9        29.92F
LEONARDTOWN*   NOT AVBL

$$

MDZ003>005-292300-
NORTH CENTRAL MARYLAND

CITY           SKY/WX    TMP DP  RH WIND       PRES   REMARKS
FREDERICK*     SUNNY     82  72  69 SW16G22   29.89F
HAGERSTOWN APT FAIR      83  70  64 S14       29.87F
WESTMINSTER*   NOT AVBL

$$

MDZ501>502-292300-
WESTERN MARYLAND

CITY           SKY/WX    TMP DP  RH WIND       PRES   REMARKS
OAKLAND*       NOT AVBL
CUMBERLAND*    NOT AVBL

$$

VAZ025>031-292300-
SHENANDOAH VALLEY

CITY           SKY/WX    TMP DP  RH WIND       PRES   REMARKS
WINCHESTER*    PTSUNNY   81  61  50 S10G16    29.89R
FRONT ROYAL*   FAIR      81  63  54 SW5       29.89S
LURAY*         FAIR      82  59  44 SW10      29.92S
NEW MARKET*    FAIR      83  64  53 SW10G16   29.91R
STAUNTON*      FAIR      80  67  64 S9        29.97S
WAYNESBORO*    FAIR      79  67  67 S10G20    29.97S

$$

WVZ021-048>050-054>055-292300-
EASTERN WEST VIRGINIA PANHANDLE

CITY           SKY/WX    TMP DP  RH WIND       PRES   REMARKS
MARTINSBURG    FAIR      82  65  56 S10       29.87S
PETERSBURG*    CLOUDY   N/A N/A N/A SW7       29.89R

$$

VAZ036>039-050-292300-
CENTRAL FOOTHILLS

CITY           SKY/WX    TMP DP  RH WIND       PRES   REMARKS
CHARLOTTESVILL PTSUNNY   79  69  71 SE3       29.94F
CULPEPER*      PTSUNNY   81  71  70 S8        29.93S
ORANGE*        FAIR      79  70  73 S8        29.94S
GORDONSVILLE*  FAIR      80  75  85 S7        29.94S
WARRENTON*     FAIR      81  71  72 S10       29.92S

$$

VAZ055>057-292300-
NORTH AND CENTRAL PIEDMONT

CITY           SKY/WX    TMP DP  RH WIND       PRES   REMARKS
FREDERICKSBRG* FAIR      82  75  77 S9G16     29.92S
STAFFORD*      FAIR      82  73  72 S10G20    29.96S

$$

NCZ024-NYZ072-PAZ021-071-VAZ022-071-292300-
OTHER REGIONAL OBSERVATIONS

CITY           SKY/WX    TMP DP  RH WIND       PRES   REMARKS
NEW YORK CITY  FAIR      79  68  69 MISG      29.91S
PHILADELPHIA   PTSUNNY   83  69  62 S15       29.90S
PITTSBURGH     LGT RAIN  64  62  93 W7        29.92R
ROANOKE        FAIR      80  69  69 SE8       29.99S
RICHMOND       CLOUDY    81  74  79 S6        29.96S
RALEIGH        PTSUNNY   72  69  90 SE8       30.01F

$$

ANZ530>537-292300-
MARINE OBSERVATIONS

STATION/POSITION TIME  TEMP    WIND        PRES
                       AIR SEA DIR/SP/G
                 (UTC) (F)     (DEG/KT/KT) (MB)
THOMAS PT LIGHT  2200   71 65  140/ 21/ 21 1012.9F
TOLCHESTER       2118   80 70  190/ 11/ 15 1012.7
GOOSES REEF      2154   72     220/ 10/ 12   N/A
COVE POINT       2124          170/ 14/ 16 1014.2
BALT HARBOR      2124   80 72  190/  4/  8 1011.6
BALT KEY BRIDGE  2124   78     170/ 16/ 19 1011.7
WASH DC CHANNEL  2124   82 75  200/ 10/ 15 1012.6
DAHLGREN         2118   81 78  170/ 11/ 15 1012.8
LEWISETTA        2124   75 73  200/  9/ 10 1014.4
SOLOMONS ISLAND  2124   76 68  200/ 11/ 16 1013.8
PINEY POINT      2124          200/ 12/ 14   N/A
POTOMAC BUOY     2154   69     210/ 10/ 14 1013.8F
CAMBRIDGE PIER   2124   78 69  160/ 13/ 16 1013.6
BISHOPS HEAD     2124   73 78  190/ 14/ 18 1013.5

$$




 

View Past Reports for Baltimore MD/Washington, DC.

Products Courtesy of NOAA-NWS
NWS Information Parsing Script by Ken True at Saratoga Weather - Script by SE Lincoln Weather.

canadians